Theta_e
299 298 297 297 297 297 297 297 298 299 301 303 304 307 313 316 317 315 313 312 313 316 317 317 315 315 314 312 311 311 312 311 310 310 309 307 308 310 311 311 312 312 311 310 309 312 313 313 319 323 323 325 325 322 320 317 316 325 329 325 325 325 322 324 325 325 327 323 318 319 317 318 321 319 319 320 321 324 323 326 337 335 329 331 332 333 337
299 298 296 296 297 297 297 297 297 299 302 302 303 308 313 314 316 316 314 313 313 315 317 317 316 314 312 312 312 311 311 311 311 310 310 308 309 311 311 310 311 311 310 310 310 312 314 315 317 320 319 321 322 320 320 320 319 328 333 328 325 328 326 327 327 329 335 333 326 325 322 321 323 320 320 322 322 326 327 328 336 336 329 331 331 332 336
298 297 296 296 297 297 297 297 298 300 302 304 305 309 312 313 315 315 314 312 312 315 316 315 314 313 313 313 313 311 311 311 311 311 311 309 309 310 310 310 310 309 309 311 310 310 313 313 315 318 317 317 318 317 318 320 319 324 330 326 325 331 330 326 326 329 335 336 331 328 325 322 322 320 319 322 324 328 329 328 331 331 327 328 332 333 334
298 297 296 296 297 297 297 297 299 301 303 306 306 308 312 314 314 313 313 313 312 313 313 312 313 313 312 313 313 312 312 312 310 311 312 309 308 310 310 310 310 311 311 313 312 311 310 311 314 317 317 317 318 317 316 319 321 325 330 326 323 328 327 322 323 327 330 330 326 322 322 321 321 320 319 322 326 326 328 334 333 329 330 334 333 332 333
297 296 296 297 297 297 296 298 300 302 305 307 307 309 313 314 312 311 313 314 314 314 312 311 313 313 312 313 313 312 313 312 311 311 311 310 309 310 310 310 311 312 313 314 315 312 310 314 318 318 318 317 316 316 316 317 322 326 326 323 321 324 328 327 325 323 322 322 320 318 319 319 318 320 320 322 325 326 328 334 332 328 333 335 329 330 334
297 296 296 297 296 297 297 298 301 303 307 309 310 313 314 312 312 312 312 313 314 314 312 311 312 312 313 314 313 312 312 312 313 314 312 310 309 312 313 313 312 312 313 316 317 317 317 320 322 321 320 319 318 320 320 317 319 321 319 319 320 322 328 329 325 321 320 319 319 318 319 318 317 320 323 322 325 327 328 329 327 329 335 335 329 330 332
297 296 296 296 297 296 296 298 302 305 307 310 311 312 311 311 312 313 312 313 312 312 311 311 312 312 313 314 312 311 312 312 312 313 314 313 312 313 315 314 312 312 313 316 317 318 320 322 323 323 323 322 323 325 326 323 320 318 319 321 321 322 326 326 322 321 319 317 319 319 318 318 319 319 321 321 324 327 327 327 327 329 332 330 327 326 322
297 296 296 296 296 296 296 298 301 304 307 310 309 309 309 311 312 312 313 312 311 311 310 310 311 311 311 312 311 310 311 311 310 310 313 315 314 312 312 313 312 311 311 313 313 314 316 318 319 321 321 325 327 324 324 328 325 320 322 324 323 322 325 324 322 323 323 319 318 318 319 320 320 319 319 321 324 325 325 327 328 328 328 325 322 320 316
297 296 296 296 296 296 296 297 299 302 306 309 310 309 307 308 309 310 312 313 312 310 310 309 310 311 311 311 311 310 310 310 310 310 310 312 311 309 309 313 314 312 310 311 311 310 312 313 315 314 314 319 324 322 322 325 324 324 325 325 326 326 326 324 323 325 325 321 319 320 321 321 323 325 323 322 325 324 323 325 327 326 325 322 319 317 315
297 295 295 296 296 296 296 296 298 300 303 306 309 310 307 306 308 308 311 315 313 308 308 308 310 311 311 310 310 310 310 309 310 312 310 308 309 308 308 311 314 313 311 310 308 308 309 311 311 311 311 312 314 317 319 319 322 327 327 325 327 328 328 327 326 325 323 320 319 321 322 323 324 325 323 322 322 322 322 324 324 323 323 322 318 316 314
297 296 295 296 296 296 296 296 297 298 300 303 306 309 308 306 308 310 313 315 312 307 307 309 310 310 309 308 309 310 311 309 309 311 311 309 309 309 308 309 311 311 310 307 307 307 308 310 311 310 311 311 310 312 314 313 319 326 328 328 328 326 327 328 325 325 324 321 321 323 324 324 322 320 320 321 321 321 323 324 323 321 321 319 315 313 312
297 296 295 296 296 296 296 297 297 298 299 302 306 308 308 307 310 313 314 312 307 306 308 308 310 310 308 308 309 309 310 310 310 311 311 310 310 309 308 309 310 309 308 306 306 307 307 310 311 310 310 311 311 312 311 313 317 320 322 326 327 325 327 327 324 325 324 321 323 326 324 321 320 319 317 318 319 320 320 321 321 320 317 313 311 310 310
297 296 295 296 296 295 296 297 297 299 300 302 306 308 307 307 310 312 313 311 307 306 307 307 307 308 308 308 309 308 309 310 311 311 310 310 309 308 307 308 308 307 306 306 306 308 311 315 316 315 312 310 311 313 313 313 315 316 317 320 324 325 326 324 322 323 322 321 323 324 320 318 319 318 315 314 317 319 320 319 318 317 314 310 308 307 306
297 296 295 295 296 295 296 297 298 299 301 302 306 307 305 305 308 311 313 312 308 304 307 308 307 307 307 307 308 308 309 309 310 310 310 309 308 307 305 305 306 306 307 308 309 311 315 318 319 318 315 316 320 319 315 313 312 314 315 316 321 326 326 325 323 321 323 325 323 320 319 318 318 316 312 311 313 314 317 319 316 313 310 307 306 305 304
297 296 294 295 296 295 295 296 297 299 301 302 305 307 305 304 307 309 311 311 308 305 306 307 307 307 307 306 306 307 309 310 309 309 309 307 305 305 305 305 306 307 307 308 311 314 316 315 316 317 317 320 324 320 314 313 313 312 312 313 318 321 322 324 326 322 322 325 321 319 320 319 316 314 311 310 311 311 314 318 316 311 309 307 306 305 305
297 296 294 295 296 295 294 296 296 298 301 302 305 307 305 303 305 307 308 310 308 306 304 304 306 307 306 305 305 306 308 309 308 308 310 308 304 304 305 306 307 308 308 309 311 314 315 313 315 320 319 316 317 317 314 314 315 313 310 311 316 321 320 321 324 322 321 322 321 319 319 317 315 313 312 311 312 313 315 319 317 312 309 307 306 305 306
297 296 294 294 296 295 294 295 296 298 300 302 304 306 304 303 304 305 308 309 307 304 302 302 304 305 304 305 306 305 306 306 306 308 310 307 303 303 305 305 305 307 308 310 311 312 314 314 315 320 317 311 312 315 315 314 315 315 314 313 317 323 323 320 319 320 319 319 319 317 316 314 313 312 312 311 312 314 319 320 317 312 310 309 308 307 308
297 297 295 294 296 296 294 295 296 298 300 302 305 306 304 302 303 305 308 309 306 304 301 300 302 303 303 304 304 304 304 304 305 307 309 307 304 303 304 304 306 307 308 309 311 311 312 313 314 316 315 311 311 313 313 313 315 315 314 314 315 318 318 315 316 318 318 318 317 316 314 313 310 310 310 309 311 315 318 317 314 310 309 310 309 309 310
297 297 295 294 296 296 295 294 295 297 298 300 304 306 303 302 303 304 307 308 306 303 302 300 301 302 301 301 302 303 303 303 304 306 308 308 305 303 305 305 306 307 308 309 312 311 310 312 311 311 315 314 311 312 312 311 312 310 310 313 315 314 314 315 315 316 316 316 315 314 314 312 310 310 310 309 313 316 314 314 313 310 307 307 307 307 307
297 297 296 294 295 296 295 294 295 296 297 299 304 308 305 302 303 304 306 307 307 304 302 301 300 300 300 301 301 302 302 303 303 303 305 306 304 305 309 310 307 307 307 309 312 311 308 310 310 307 312 313 311 311 311 308 307 307 309 312 313 312 313 315 314 313 314 316 315 314 313 311 309 311 311 310 312 313 310 310 310 308 306 306 306 305 305
297 297 296 294 295 296 296 294 295 297 298 299 304 308 306 304 303 304 305 306 307 306 304 302 300 300 300 300 301 301 301 302 302 302 303 304 304 306 308 308 307 306 305 307 311 310 307 308 308 307 309 310 310 311 310 309 308 307 308 311 312 311 313 315 313 311 314 315 313 311 310 308 307 309 310 308 308 308 307 307 307 306 306 306 305 305 304
297 297 296 294 294 296 296 295 295 297 299 300 303 306 306 305 303 303 305 306 306 306 304 302 300 300 300 300 300 301 301 301 301 301 302 304 306 305 304 305 306 305 304 305 309 310 307 306 307 307 307 308 309 309 308 310 310 308 308 311 312 310 310 311 311 310 311 311 310 308 306 305 305 306 306 305 305 305 305 306 305 304 304 304 305 305 304
296 296 296 295 294 295 296 296 295 296 298 301 303 304 306 305 303 303 305 306 306 305 303 302 302 302 301 300 300 301 301 301 301 301 301 305 307 305 303 304 305 304 305 306 306 307 308 306 306 307 307 306 307 309 309 310 309 307 307 310 310 308 308 309 310 308 308 309 307 305 304 305 304 304 304 304 303 303 303 303 303 302 303 303 304 305 304
296 295 295 294 294 294 296 296 296 295 297 300 302 304 306 305 302 302 305 307 308 307 305 303 305 305 303 301 300 301 301 301 301 301 301 303 305 306 305 305 305 305 308 308 305 305 307 306 306 308 307 304 306 309 310 309 308 307 309 309 307 306 308 310 310 308 309 309 307 305 306 305 303 303 303 302 302 302 302 302 302 302 302 302 302 303 304
295 295 295 294 294 294 295 295 296 295 296 299 302 304 305 304 301 301 304 307 309 309 306 304 304 303 301 301 301 301 301 301 301 301 301 301 303 305 305 304 304 306 308 308 307 308 308 305 305 306 306 305 306 307 308 308 306 308 310 309 306 305 308 310 309 308 309 308 306 306 307 305 303 303 302 302 302 302 301 301 301 301 301 301 301 301 302
295 295 296 295 294 294 294 295 296 296 295 297 300 303 305 304 301 300 302 304 307 309 307 305 303 301 301 301 301 301 301 301 301 301 302 301 301 303 303 303 305 306 307 308 308 307 305 305 305 305 305 305 305 305 306 307 307 307 308 307 305 306 308 308 308 308 308 307 305 306 306 304 303 303 303 303 302 301 301 301 300 300 300 300 300 300 301
295 295 296 295 294 293 294 295 296 296 295 295 298 302 305 304 302 300 300 303 307 309 309 306 304 302 302 301 301 301 301 301 302 301 301 302 302 301 302 304 306 306 306 309 308 305 304 306 306 305 304 305 306 307 305 303 305 307 306 305 306 307 307 307 308 308 308 307 306 306 305 304 304 304 304 303 302 301 301 301 300 299 299 300 300 300 299
295 295 296 295 294 293 294 294 295 297 296 296 298 302 304 304 303 300 298 301 305 307 307 308 305 303 303 303 301 301 301 301 302 302 301 301 302 302 302 304 306 305 305 307 306 304 304 304 303 304 304 304 306 308 306 304 307 308 305 303 305 305 305 307 309 308 308 307 307 306 305 305 304 304 305 304 303 302 302 301 301 300 300 299 300 300 300
295 295 295 295 294 293 294 294 295 296 297 299 302 305 306 305 303 299 296 298 302 305 306 308 306 304 304 304 302 301 301 302 302 302 302 302 302 301 302 303 304 303 304 304 303 304 305 303 302 303 303 302 303 305 305 306 308 306 303 303 304 304 305 306 306 306 306 305 305 305 305 304 303 303 303 303 302 301 301 301 301 300 299 299 299 299 300
295 295 295 294 294 294 294 294 295 296 299 303 305 307 307 306 304 299 295 297 301 304 305 306 306 304 304 303 302 301 301 302 302 302 303 303 303 301 301 302 303 303 306 306 304 302 303 303 303 304 302 301 302 303 302 305 306 303 302 303 303 304 306 306 305 305 305 304 304 305 305 304 303 302 301 301 300 300 300 301 300 298 298 298 298 297 297
295 295 294 294 294 294 294 294 295 297 301 304 305 306 307 306 303 299 295 295 300 304 305 306 306 305 303 303 302 301 301 302 303 303 303 303 303 302 301 303 302 303 306 308 305 302 302 301 302 304 302 301 302 302 301 305 305 302 301 303 303 303 305 305 304 304 304 304 305 305 304 304 302 301 300 300 299 299 300 299 298 297 298 298 297 297 297
295 295 294 294 294 294 294 294 295 298 303 304 302 303 303 302 300 298 295 295 300 304 305 306 305 303 303 304 303 301 301 302 303 303 303 303 303 303 303 304 304 302 304 305 304 302 302 301 302 303 303 302 302 301 302 305 306 303 301 302 303 303 303 304 303 303 303 303 304 303 302 303 302 301 300 299 298 298 299 298 296 297 297 297 297 297 297
295 294 294 294 294 294 294 294 295 298 300 300 300 302 303 301 299 297 295 297 303 306 305 305 304 302 302 304 304 302 302 303 304 305 304 302 303 303 303 304 305 304 303 303 302 301 302 303 304 304 303 302 301 301 301 303 304 302 302 302 303 302 303 302 303 302 302 302 302 301 301 301 301 300 299 298 298 298 298 297 296 296 297 297 297 297 297
295 295 294 294 294 294 294 295 295 297 298 299 302 305 304 301 297 295 295 301 307 307 303 302 303 302 302 303 304 303 302 303 304 305 304 302 302 303 303 303 305 306 305 303 302 302 304 305 304 302 302 302 301 300 300 300 301 301 302 302 303 303 303 302 302 303 303 302 302 301 300 299 299 299 298 298 299 298 297 297 297 297 299 299 298 297 297
295 295 294 294 294 294 294 295 296 299 301 303 304 304 301 298 296 294 296 303 309 307 303 300 301 302 303 305 305 303 302 303 304 304 303 303 303 302 303 303 305 306 305 303 302 304 305 305 303 302 302 302 301 300 300 300 301 302 302 302 303 303 302 301 302 303 303 302 302 301 300 299 300 300 299 300 300 298 298 298 298 298 300 300 298 296 296
295 295 294 293 294 295 297 298 299 302 305 304 302 299 297 297 296 295 296 301 306 306 304 303 303 303 305 306 304 302 301 303 303 303 303 304 303 302 303 303 304 304 303 302 303 304 305 305 304 302 302 301 300 300 301 302 302 302 302 302 303 303 302 302 302 302 302 303 303 301 300 300 300 300 300 301 300 299 299 299 299 298 300 300 299 297 296
295 295 295 296 298 300 302 302 301 302 303 302 300 299 298 297 297 299 300 302 305 305 304 305 305 305 305 305 303 302 302 302 303 303 304 303 303 303 303 304 303 302 302 303 303 303 303 304 303 301 301 301 300 301 302 303 303 302 301 302 303 303 302 303 302 301 301 302 302 301 300 300 300 299 299 300 301 301 300 300 299 299 299 299 299 298 296
295 296 298 301 303 304 305 304 301 300 299 299 300 302 302 300 301 303 303 303 304 304 304 305 305 304 306 306 304 302 302 303 304 304 303 302 302 302 302 302 302 301 302 303 303 301 301 302 302 302 301 300 300 301 302 303 303 303 303 303 303 302 302 302 302 301 301 301 301 301 300 300 300 300 300 300 301 301 299 298 298 297 297 297 297 297 296
296 298 301 303 304 303 303 302 300 298 298 299 301 304 303 301 302 303 302 301 301 303 304 305 304 304 305 306 304 302 302 303 304 305 303 302 302 301 301 301 301 300 301 302 302 302 302 301 301 302 302 301 300 301 302 303 303 303 304 303 301 301 301 301 301 301 302 302 301 300 300 299 299 299 300 301 301 300 298 297 297 297 297 296 296 296 296
300 301 303 304 303 301 299 298 299 300 302 303 303 302 301 300 301 301 301 301 302 303 304 304 303 303 303 304 304 303 302 302 304 304 303 302 302 301 300 300 300 300 300 301 302 302 301 300 301 302 302 300 300 301 302 303 302 302 303 301 299 298 299 299 299 300 300 300 300 299 298 297 298 298 299 300 301 301 299 297 297 297 297 296 296 296 296
301 302 302 303 302 300 298 299 300 302 303 302 301 299 299 301 301 301 301 302 302 302 302 303 303 303 303 302 304 304 302 301 303 303 302 302 302 301 301 301 300 300 300 300 301 300 300 300 302 302 301 300 301 301 302 301 301 301 301 299 298 298 298 298 298 299 299 299 299 298 298 297 297 298 297 297 298 299 298 297 297 297 296 296 296 296 296
298 299 300 301 301 300 300 301 301 301 300 299 299 299 300 300 300 301 301 302 301 302 303 303 303 303 301 301 303 304 302 301 302 302 302 301 301 300 301 301 300 299 299 300 300 301 300 300 301 301 300 300 301 302 301 300 301 301 299 297 298 299 298 298 298 298 298 299 299 298 298 298 297 297 297 297 297 297 297 297 297 296 296 296 296 296 296
299 301 302 302 302 301 301 301 301 300 299 299 300 300 300 299 300 301 301 301 301 302 303 303 301 302 303 302 302 303 303 302 302 302 301 301 300 300 300 300 299 299 300 301 300 301 300 300 301 301 300 300 301 301 301 300 301 301 299 297 297 298 298 298 298 298 298 298 298 298 298 298 298 297 297 297 297 297 297 297 296 296 295 295 296 296 296
301 302 303 303 301 300 300 300 300 299 299 299 299 300 300 301 302 302 302 301 302 302 303 302 302 303 304 304 303 303 302 302 301 301 301 300 300 300 300 300 300 301 301 300 300 300 300 301 301 301 300 300 301 301 300 301 301 301 300 298 298 298 298 298 298 298 298 298 298 298 298 297 297 297 297 297 297 297 297 297 296 295 294 295 295 295 296
302 302 301 300 300 299 299 299 299 299 299 299 300 301 302 303 304 303 302 303 303 303 302 303 303 303 304 303 302 302 302 302 301 301 301 300 300 300 300 300 301 300 300 300 300 300 300 301 301 300 300 300 300 300 300 301 300 300 299 299 299 298 298 298 298 298 298 298 298 298 298 298 297 297 297 297 297 297 297 297 296 295 294 295 295 295 295
302 300 299 299 299 299 298 298 299 300 300 301 302 303 303 303 303 303 302 303 304 303 302 303 303 303 303 302 302 303 303 302 301 301 301 300 300 300 300 300 300 299 299 300 300 299 300 300 301 300 300 300 300 300 301 301 299 298 299 300 300 299 298 298 298 298 298 298 298 298 297 298 298 297 297 297 297 297 297 297 297 296 295 296 296 295 295
301 299 299 300 299 298 298 299 300 301 302 303 303 302 302 302 302 302 302 303 304 303 303 303 303 303 302 302 302 303 302 301 301 301 301 300 300 300 300 300 299 299 299 299 299 300 301 302 301 301 301 301 301 300 301 300 299 299 300 301 301 299 298 298 298 298 298 298 298 298 298 297 297 297 297 297 297 297 297 297 297 297 296 296 296 296 296
300 299 299 300 300 299 299 301 301 302 303 304 303 302 302 302 302 302 302 303 304 304 304 303 303 302 302 302 302 302 302 301 301 301 300 300 299 299 299 299 299 299 299 300 300 301 302 302 301 300 301 301 301 301 300 300 300 300 300 301 300 299 298 297 298 298 298 298 298 298 297 297 297 297 297 297 297 297 297 297 297 297 297 297 297 296 296
300 298 299 299 300 300 302 303 303 303 303 303 303 303 302 302 302 302 302 303 303 303 303 303 302 301 301 301 301 301 301 301 301 300 299 299 299 299 299 299 299 299 300 301 301 301 301 301 301 300 300 300 301 301 301 300 299 299 299 299 299 298 298 298 298 298 298 298 298 298 297 297 297 297 297 297 297 297 297 297 297 297 297 297 297 297 296
299 299 299 300 301 302 303 303 303 304 303 302 302 303 302 302 302 302 302 302 303 303 303 302 301 301 301 300 300 300 300 301 300 300 300 300 300 299 300 300 300 300 301 301 301 301 300 301 301 301 300 300 301 301 301 300 299 298 298 298 298 298 298 298 298 298 298 298 298 298 297 297 297 297 297 297 297 297 297 297 297 297 297 297 297 297 296
298 299 300 301 302 302 302 302 303 303 303 302 302 302 302 303 304 303 301 302 303 303 302 301 301 301 301 301 300 300 300 300 300 301 301 301 300 300 300 300 300 300 300 301 301 301 300 301 301 301 300 300 301 301 300 299 298 298 298 298 298 298 298 298 298 298 297 298 298 298 298 297 297 297 297 297 297 297 297 297 297 297 297 297 297 297 297
299 300 301 302 302 302 302 302 303 303 302 301 302 302 303 303 303 302 301 302 303 303 301 301 301 300 300 300 300 300 300 300 300 300 301 300 300 300 300 301 301 300 300 301 301 301 301 302 301 301 300 300 300 299 299 298 299 298 298 298 298 298 298 298 298 298 297 297 298 298 298 298 297 297 297 297 297 297 297 297 297 297 297 297 297 297 297
Wind_Speed
23 23 24 26 27 27 29 30 30 30 29 23 19 12 3 2 2 3 5 4 4 3 1 3 2 2 4 7 9 10 9 9 11 11 11 9 5 2 3 4 5 4 4 6 6 4 5 3 1 4 4 4 5 4 0 5 4 3 2 4 4 3 1 2 1 2 2 4 7 6 8 10 6 5 7 7 6 4 2 4 3 2 0 1 3 1 3
22 23 25 27 27 28 29 30 29 28 27 21 14 7 2 2 3 2 5 7 6 2 0 3 4 4 6 8 9 9 8 8 9 10 10 8 5 3 4 5 5 5 7 10 9 4 2 3 2 4 3 3 5 6 3 2 3 2 1 1 3 3 1 2 3 3 4 5 5 4 7 6 3 4 7 9 10 9 4 2 4 2 2 4 5 1 3
22 22 25 27 27 28 29 29 29 27 26 21 9 2 2 3 2 1 3 5 2 2 2 1 4 5 6 8 9 8 8 7 8 11 12 9 6 5 4 6 8 6 7 11 11 6 3 2 3 2 1 2 3 6 6 5 2 2 3 3 2 0 2 0 3 3 1 1 2 2 2 2 2 4 9 12 12 10 4 2 4 2 1 4 5 3 2
22 22 25 26 27 29 29 30 29 25 26 22 7 3 3 2 1 2 1 2 4 4 3 3 3 3 5 6 6 8 7 6 7 9 9 7 6 5 4 5 7 6 6 8 8 7 7 6 1 1 0 1 1 1 5 7 4 5 5 2 2 2 3 2 2 3 4 4 4 4 3 3 3 6 10 12 11 9 6 4 1 1 3 2 2 7 8
22 22 24 26 27 29 30 31 30 24 23 21 7 4 2 1 1 2 1 2 4 3 4 4 2 2 3 2 5 8 8 7 7 7 7 8 6 4 3 5 6 6 6 5 5 7 8 6 5 5 5 2 2 5 6 6 8 9 6 4 2 2 1 3 2 2 3 6 5 3 4 4 4 5 9 11 11 11 9 5 3 4 3 3 0 8 10
21 22 24 25 27 29 30 32 31 23 21 16 3 3 1 1 0 1 1 1 2 2 3 4 2 3 2 0 4 7 8 7 6 6 9 12 8 3 3 7 11 11 7 5 5 7 7 7 7 6 7 5 4 5 5 5 10 10 5 4 4 1 0 3 5 3 2 5 7 6 4 2 3 5 8 10 11 11 8 3 6 4 5 5 4 9 9
21 21 23 25 27 29 30 32 31 26 20 12 4 1 3 2 1 3 2 1 2 3 0 2 4 4 4 2 3 7 8 7 5 3 5 8 9 7 4 7 11 12 8 7 5 6 6 5 5 4 5 6 4 4 5 3 8 10 6 5 5 2 1 4 4 1 3 4 6 7 5 3 3 3 5 9 10 9 7 5 7 8 9 8 11 15 11
21 21 23 24 26 28 29 31 32 28 20 13 7 5 5 3 1 2 3 2 2 5 2 3 4 4 5 3 3 6 7 7 5 3 1 2 5 7 7 7 7 9 10 8 6 6 5 4 5 4 4 4 1 1 2 2 4 7 5 3 5 3 2 5 6 3 3 3 6 7 6 6 4 3 3 8 10 8 6 4 6 8 9 7 10 14 9
21 21 22 23 24 26 28 29 31 29 23 14 7 6 8 7 7 5 3 3 3 3 3 4 4 3 4 3 3 5 7 9 7 4 5 7 7 8 11 9 5 6 9 9 7 9 8 6 7 6 4 3 4 2 1 2 2 5 3 2 3 2 1 4 5 4 4 4 4 6 8 8 6 7 6 5 6 6 4 3 3 5 7 6 7 8 5
21 21 21 22 23 24 26 28 29 30 26 17 6 6 11 11 10 9 3 2 4 0 4 5 4 1 2 3 4 4 7 10 8 4 6 10 9 9 10 9 5 4 7 9 9 10 10 8 7 6 5 6 7 3 4 6 5 4 3 2 2 2 2 2 3 2 4 9 6 4 7 7 5 5 7 5 2 7 7 6 5 5 6 5 3 4 4
21 21 21 21 22 23 24 26 27 28 28 21 6 5 10 10 6 5 2 1 4 4 3 4 2 2 2 4 5 4 5 8 8 4 4 6 8 8 8 8 5 3 5 7 9 10 11 11 9 7 6 7 8 6 5 5 4 5 6 4 1 1 4 3 2 3 2 8 8 5 5 5 1 6 8 4 5 10 9 6 6 6 6 7 7 7 6
21 21 21 21 21 22 23 24 25 26 27 24 9 5 12 15 6 4 1 1 3 6 4 3 2 2 1 4 5 5 5 5 6 5 3 3 6 6 6 6 4 3 6 9 10 10 11 10 9 8 7 8 8 7 4 2 3 3 5 5 4 4 5 3 2 3 1 4 7 5 2 1 3 7 8 6 8 12 11 8 7 10 13 14 12 10 9
21 21 21 20 20 21 22 22 23 23 24 24 15 6 13 18 8 2 2 3 3 5 4 4 5 4 2 1 2 4 5 4 4 4 3 2 4 5 4 4 4 5 8 10 11 10 8 6 4 3 5 6 5 2 7 9 9 8 5 4 5 5 4 3 3 3 1 1 3 2 2 1 3 6 9 10 7 7 9 9 8 7 12 14 12 10 10
21 21 20 20 20 20 21 21 22 22 22 23 18 11 15 19 11 2 2 2 2 5 5 5 7 9 7 3 2 2 4 4 4 4 2 0 2 4 4 5 5 6 7 7 8 6 3 3 4 4 3 3 3 4 6 6 8 11 8 3 3 5 3 2 2 2 2 3 2 1 1 2 4 5 6 6 4 4 3 4 5 6 8 13 12 12 11
20 20 20 19 19 20 21 20 21 21 21 21 18 13 16 21 15 5 2 1 2 4 5 5 6 8 8 7 7 5 4 4 5 5 3 1 1 2 2 4 6 7 6 4 4 2 3 2 3 4 4 3 2 2 4 3 4 8 10 7 5 5 4 2 2 1 1 4 3 1 1 0 2 3 6 5 3 6 6 2 4 5 6 11 13 13 12
20 19 19 19 19 19 20 20 20 21 20 20 18 14 16 21 21 12 4 0 3 4 5 6 7 7 6 7 9 8 4 5 6 5 3 3 4 4 4 5 6 6 4 3 3 2 3 3 3 2 1 1 1 2 2 3 3 5 9 10 10 8 7 5 4 2 2 4 3 1 2 1 2 4 6 6 4 7 7 3 4 3 6 9 11 12 11
19 19 18 18 18 18 19 19 19 19 19 21 19 15 14 21 24 17 5 1 4 4 4 7 7 5 5 5 6 7 4 4 5 4 3 4 6 7 8 7 8 8 5 4 3 3 4 2 3 3 0 2 1 1 1 2 2 5 6 6 8 7 5 5 3 1 2 3 3 2 2 0 3 5 5 4 4 5 5 3 1 2 5 6 8 10 8
19 18 18 17 16 17 18 18 18 17 18 20 17 12 13 19 25 20 8 1 4 3 4 9 8 4 5 5 4 4 4 5 5 4 4 4 4 7 8 5 6 8 7 5 3 3 3 2 2 4 1 3 2 1 1 1 1 2 4 4 4 4 3 2 2 2 3 3 3 2 1 1 4 6 7 5 3 3 3 2 1 3 7 7 7 8 5
18 18 17 16 15 16 16 17 18 16 17 20 17 12 12 18 23 22 12 3 3 4 5 8 9 6 6 6 5 4 5 5 5 4 4 4 6 10 7 3 4 5 5 4 3 2 3 3 2 2 2 1 2 2 2 2 1 2 4 5 3 2 2 2 3 2 2 3 3 2 1 2 5 6 6 4 3 2 2 3 3 5 8 9 9 8 6
17 17 16 15 15 14 15 16 16 16 15 18 18 12 11 15 18 18 13 5 1 3 4 6 9 8 7 6 5 5 5 5 4 5 4 3 7 9 5 4 5 4 4 5 4 3 3 3 3 2 3 1 1 1 2 4 6 4 3 4 2 1 1 2 2 2 1 3 3 2 1 3 6 4 4 5 3 2 2 4 5 6 8 8 8 8 7
17 17 16 15 14 13 14 14 15 15 14 15 16 11 11 15 17 16 15 11 2 3 2 4 10 10 8 8 7 7 8 6 4 4 3 4 6 4 3 3 5 4 3 4 3 3 3 3 3 3 3 2 2 2 2 3 4 5 4 5 3 3 1 2 1 1 1 3 2 1 2 5 7 5 4 2 3 3 5 7 7 6 6 6 6 7 8
16 16 15 15 13 12 13 12 13 14 13 14 16 12 11 17 18 16 15 11 2 4 3 1 9 12 11 11 10 9 10 9 7 7 4 4 4 4 3 3 5 3 1 2 2 2 3 3 2 2 3 3 3 4 4 3 3 4 5 4 2 3 5 5 3 3 3 3 3 4 5 5 7 7 6 5 7 7 8 9 8 6 5 5 6 7 8
16 16 15 13 12 12 12 11 11 12 11 13 15 14 12 15 17 17 15 9 1 3 3 2 9 9 8 11 12 10 10 10 10 11 10 5 3 3 4 3 3 3 2 2 1 1 2 2 2 1 3 4 4 4 5 4 2 3 4 4 3 5 7 6 5 5 6 6 6 7 8 7 8 8 7 8 9 8 8 10 9 7 6 6 6 8 8
16 17 15 13 11 11 11 10 10 10 9 9 11 13 12 12 15 18 15 8 3 2 4 5 6 3 3 7 9 9 11 11 10 11 12 10 5 2 3 2 1 2 4 4 2 1 1 1 2 2 3 3 3 3 4 3 2 2 3 4 3 3 5 5 4 4 4 4 5 6 7 7 7 8 7 8 8 7 7 8 7 7 7 6 7 8 8
15 16 15 12 11 10 10 9 9 9 8 8 8 10 11 11 14 15 10 5 2 1 2 3 2 2 4 6 7 9 12 11 10 10 12 12 8 2 3 5 4 3 4 6 4 3 3 2 3 4 3 3 3 4 3 3 3 3 4 3 3 3 4 4 3 3 4 5 5 5 6 7 7 7 6 6 7 7 7 7 7 7 7 8 8 8 7
15 15 14 12 10 9 9 9 8 8 7 6 6 9 10 10 13 13 9 4 3 1 2 1 1 2 6 5 6 11 12 10 11 11 11 11 10 7 7 7 4 3 3 4 3 5 4 3 4 4 3 2 2 2 2 3 3 4 4 3 3 3 4 3 4 5 5 6 6 5 6 7 7 7 6 5 5 7 7 8 8 8 8 8 9 9 9
14 13 13 12 10 9 8 7 7 7 6 4 4 6 8 8 10 11 10 6 3 1 2 2 1 2 6 7 8 12 12 10 11 11 10 10 9 9 11 9 4 3 5 4 4 4 4 4 4 3 2 2 2 2 2 3 5 5 4 4 3 4 5 4 4 5 3 3 5 5 5 5 4 5 6 6 6 7 8 8 8 7 7 6 6 8 9
14 13 13 12 10 9 8 6 5 5 6 6 5 4 5 7 9 10 9 7 5 2 1 3 2 0 3 5 6 9 11 10 10 9 9 9 8 8 9 7 5 5 5 4 3 3 4 4 3 2 1 1 2 3 3 3 5 4 2 3 3 4 4 3 5 5 2 2 3 4 5 5 4 5 6 6 6 6 7 8 7 6 7 7 6 5 5
13 12 11 10 10 9 7 5 5 5 6 9 7 3 3 5 8 11 10 7 5 2 2 2 1 0 1 3 5 6 8 8 7 7 7 7 7 9 9 7 5 5 4 3 4 3 3 2 2 1 1 1 1 2 3 3 4 2 1 2 4 6 7 7 7 6 3 2 4 5 6 5 5 5 6 5 7 7 6 7 6 5 8 10 7 6 6
12 11 10 9 9 9 7 4 4 4 7 10 8 3 1 2 5 12 12 7 5 3 1 1 1 0 1 2 4 6 5 6 5 6 9 7 4 7 9 6 4 4 4 3 4 3 2 1 2 2 1 1 2 1 2 3 4 2 3 5 6 7 7 7 7 7 5 5 6 6 6 5 6 7 7 8 11 11 7 7 8 8 10 12 9 7 8
11 10 10 9 9 8 6 3 2 2 7 10 7 2 1 0 5 12 14 8 4 3 1 0 1 1 0 1 1 4 6 4 6 3 9 8 4 6 6 5 4 5 4 3 3 3 2 1 2 2 2 3 3 2 2 4 3 2 4 6 6 6 6 5 6 7 7 7 6 6 5 5 6 6 5 6 11 12 8 6 8 10 12 13 10 8 9
10 10 10 9 8 7 4 1 1 1 4 7 4 1 2 2 7 12 12 7 4 2 0 1 1 1 0 1 2 1 6 5 2 1 4 5 4 4 4 3 3 3 2 2 1 1 1 0 2 2 2 2 2 2 3 4 3 2 4 7 7 6 6 5 5 5 5 5 6 6 5 4 5 7 5 6 11 13 11 9 10 11 11 11 9 7 9
9 10 10 8 7 5 1 2 2 2 1 2 1 1 2 3 7 10 9 6 4 3 1 1 1 1 1 1 2 1 5 6 1 2 2 5 3 3 2 1 2 2 2 2 1 0 1 1 3 2 2 2 2 2 2 3 3 5 7 8 6 6 6 6 6 6 6 6 7 6 5 4 5 7 8 9 11 11 12 12 12 11 10 8 7 7 9
9 10 8 7 4 1 1 3 3 1 2 3 1 2 3 5 6 6 5 4 4 3 1 0 1 1 1 1 2 3 4 4 1 2 1 4 3 2 1 2 1 2 2 1 1 1 2 2 3 2 1 2 2 2 2 3 5 6 7 7 7 6 6 5 5 6 6 6 7 6 6 7 6 5 6 7 7 7 10 11 10 9 7 4 4 7 10
9 8 6 4 1 2 3 2 2 1 3 2 1 3 3 5 4 3 2 3 3 2 2 0 1 1 0 2 1 4 4 3 2 1 1 1 2 2 1 2 2 1 2 1 2 3 1 1 0 2 1 2 2 2 2 4 6 7 6 5 6 6 4 4 5 5 5 6 6 5 5 6 4 3 3 4 4 6 8 6 3 4 5 5 5 8 11
7 6 3 1 2 3 2 1 1 1 2 1 2 3 4 4 3 0 1 1 1 1 1 1 0 1 0 3 1 4 4 3 2 1 1 2 2 2 1 3 2 1 2 1 3 2 1 2 1 2 1 1 1 2 3 6 7 7 6 4 3 5 5 5 5 5 5 6 6 5 4 3 1 1 3 3 4 7 7 5 6 5 4 5 5 7 9
4 1 3 4 4 1 1 2 1 1 0 1 3 5 4 3 2 1 1 1 2 3 1 1 2 3 0 3 1 3 3 3 2 2 2 2 1 2 2 3 1 2 2 3 3 1 2 0 2 2 1 1 2 3 5 7 7 6 6 5 4 3 3 6 8 6 5 4 4 3 1 3 4 2 3 4 5 7 6 6 5 4 4 5 5 6 9
2 4 4 2 1 1 1 1 1 1 1 2 4 4 2 1 1 1 2 1 2 3 2 1 1 3 2 3 1 3 3 2 3 3 2 1 1 2 2 2 0 1 2 2 1 2 2 1 2 2 2 3 4 5 6 7 6 5 6 5 6 6 3 5 7 6 4 4 3 2 2 3 3 1 2 5 6 7 7 7 6 3 3 6 8 8 8
3 2 0 2 2 1 0 1 1 3 2 1 2 2 1 1 1 0 1 1 1 1 1 1 1 3 4 4 1 4 3 2 2 3 2 1 1 1 1 1 1 1 2 2 3 2 2 2 0 3 3 3 3 4 5 6 6 6 6 6 6 7 5 2 6 7 5 4 5 5 3 2 3 4 3 4 6 7 8 9 6 3 4 7 9 7 5
3 1 2 1 1 1 1 3 3 3 3 1 1 0 0 0 0 1 0 0 0 1 0 1 0 1 3 3 2 3 4 3 2 2 1 1 1 0 1 1 0 1 2 1 2 1 1 2 2 3 2 2 2 4 5 6 6 6 6 6 7 9 9 6 1 6 6 3 3 6 8 9 7 4 4 4 5 5 7 8 6 8 8 10 10 7 7
1 2 2 1 1 2 3 3 2 0 1 0 0 0 0 1 1 0 1 0 0 0 0 1 1 1 2 3 3 2 3 3 1 1 1 1 1 0 1 1 0 1 2 1 2 1 1 1 1 1 0 1 3 5 6 6 6 6 7 7 8 9 11 12 7 2 6 2 3 5 10 11 8 6 5 3 2 4 9 10 8 8 10 13 10 7 8
1 2 3 3 2 2 3 1 1 1 0 1 1 1 0 0 1 0 0 0 0 1 1 1 2 2 2 3 2 2 1 3 2 1 1 0 1 0 1 1 1 1 1 1 1 1 1 1 2 1 1 2 4 5 6 5 5 6 7 8 9 8 7 10 10 3 5 6 8 4 7 11 7 3 3 4 2 5 9 8 6 7 9 10 9 10 10
1 2 3 3 1 2 1 1 1 1 1 1 1 1 1 1 1 1 1 0 0 1 0 0 1 2 2 3 2 2 1 1 1 1 1 0 1 1 2 1 1 0 0 1 1 1 1 1 1 1 2 2 3 5 5 5 5 6 7 10 12 10 7 8 8 3 6 7 4 5 4 9 5 1 2 2 1 6 7 3 2 5 6 5 5 8 11
1 1 1 1 1 1 1 1 1 1 0 0 1 1 1 2 1 1 1 0 0 1 0 0 2 3 0 1 1 2 1 1 1 1 1 1 1 1 1 0 0 0 0 1 1 0 0 1 1 1 3 3 3 4 5 5 5 5 5 7 11 13 12 9 7 4 5 8 0 6 1 6 2 2 2 2 3 5 10 7 3 3 4 6 9 10 10
2 1 1 1 2 1 0 1 1 0 1 1 2 2 2 1 2 3 2 1 1 1 1 2 2 4 1 0 1 1 0 0 1 1 0 1 1 1 0 0 1 1 1 1 1 1 1 1 2 2 3 3 2 4 5 5 5 5 4 4 6 9 10 7 6 5 4 3 5 7 2 5 2 5 3 4 4 5 9 10 9 9 8 10 11 9 7
1 1 2 2 1 2 0 1 1 1 2 2 2 1 3 3 3 3 2 1 2 4 2 3 4 4 2 0 1 0 0 1 1 0 1 1 1 0 1 1 1 2 2 1 1 1 2 1 2 2 4 3 2 4 5 5 4 5 4 3 3 5 7 7 6 6 5 3 6 7 2 3 3 4 1 1 1 2 4 7 10 12 12 13 12 9 7
2 1 1 1 0 1 1 1 2 3 2 1 2 4 5 4 3 3 3 3 3 4 3 3 3 3 2 1 1 0 1 2 1 1 1 2 0 0 1 2 1 0 1 1 1 0 1 2 2 2 4 4 4 4 4 3 3 3 4 4 4 3 4 6 6 6 5 4 5 6 5 3 3 2 2 3 3 2 2 3 5 6 6 7 8 8 7
1 1 0 0 1 1 2 3 4 3 1 3 4 4 4 4 4 4 4 4 4 5 4 3 3 2 2 1 1 0 0 1 1 0 1 2 1 1 2 1 1 1 1 1 1 2 2 2 2 3 3 3 4 3 3 3 3 3 4 5 5 3 2 3 2 4 5 5 4 3 6 9 10 9 6 5 6 7 7 7 7 7 7 7 8 8 5
1 0 0 1 1 2 4 4 2 2 4 4 4 4 4 5 5 4 4 4 4 4 3 3 3 1 1 1 0 0 0 1 1 1 1 1 1 1 1 0 1 1 1 1 1 2 3 3 4 3 1 2 2 3 3 2 2 4 5 6 6 5 3 3 5 5 7 9 8 4 3 5 7 9 11 11 11 9 8 11 10 8 8 9 10 10 7
1 0 1 1 2 3 3 1 3 4 3 3 3 4 5 5 4 3 4 3 3 3 3 3 2 1 1 1 1 1 1 0 1 1 0 1 1 1 1 1 2 2 1 1 3 3 3 3 4 3 2 2 2 2 2 2 3 5 7 8 10 10 7 4 3 4 5 7 10 11 11 9 8 5 6 11 12 9 5 5 10 11 11 11 11 11 10
0 1 2 2 3 4 3 1 3 4 4 3 3 4 4 5 4 2 4 2 3 3 2 1 0 0 1 1 1 0 0 1 1 1 0 0 0 1 1 1 1 1 2 2 2 3 3 3 4 4 3 4 4 3 4 4 5 6 7 9 10 10 7 5 5 6 8 7 6 14 15 12 12 12 9 9 8 4 5 5 4 5 7 10 12 12 11
1 2 2 3 3 3 2 1 3 4 4 4 3 3 4 4 4 2 3 4 3 2 1 0 0 1 0 0 0 1 1 1 1 1 1 1 0 0 1 1 2 3 2 2 2 2 3 4 4 4 2 3 5 5 5 5 5 5 6 7 10 9 7 7 7 6 7 8 6 8 11 10 10 11 9 7 6 5 4 2 5 5 4 5 8 10 12
Wind_Direction
343 343 348 352 355 357 359 0 2 2 1 358 355 350 295 254 337 173 173 186 182 167 305 310 301 279 295 301 299 300 299 301 307 307 302 293 281 298 332 330 329 335 331 308 296 307 320 308 186 146 145 172 204 200 291 347 10 53 18 330 321 323 46 77 350 304 358 356 340 5 43 36 23 20 21 25 22 16 135 166 161 135 215 61 70 54 253
344 346 352 356 357 358 359 360 2 4 4 1 350 337 294 298 312 185 187 211 212 180 10 314 322 318 321 324 314 304 298 292 296 303 304 308 330 348 342 342 334 338 342 321 299 274 290 341 73 126 134 163 193 191 170 31 24 57 117 242 297 316 337 63 47 9 352 354 348 359 21 35 42 7 23 36 28 17 16 73 79 91 204 140 114 197 243
346 350 356 357 358 359 358 359 2 3 2 2 353 298 296 297 271 220 205 210 207 60 70 1 336 336 336 329 313 305 301 295 315 325 311 305 332 344 335 344 335 328 340 325 308 294 285 326 53 98 126 126 179 189 160 134 118 106 135 182 177 35 279 243 103 126 179 276 224 226 331 19 33 11 29 39 32 23 23 82 76 75 203 123 120 154 169
349 354 358 359 358 359 358 358 0 2 1 357 344 234 280 314 335 349 341 34 39 43 43 32 18 351 343 330 311 312 314 311 329 337 317 299 324 338 327 338 336 328 329 321 322 336 319 305 344 31 320 116 160 172 127 124 98 57 43 27 107 127 262 266 133 155 172 172 183 183 144 84 47 22 31 39 38 34 47 81 83 192 137 79 129 147 131
352 357 0 0 360 360 359 359 360 1 359 353 333 214 248 317 1 354 343 9 10 16 12 12 36 33 13 349 312 321 332 333 336 351 338 312 313 327 332 344 335 317 319 321 326 335 334 352 28 5 342 6 53 51 74 82 51 38 17 354 53 117 279 296 268 230 163 150 138 106 96 88 71 50 39 41 45 43 54 71 292 261 130 73 329 131 122
355 360 2 1 2 2 1 2 3 0 356 356 344 204 290 69 82 353 115 156 346 11 358 348 26 51 41 329 298 327 354 5 3 357 327 316 330 359 1 7 355 336 346 26 3 345 0 24 29 12 1 360 6 24 39 58 45 32 12 2 11 54 153 278 256 228 158 150 134 115 110 99 70 68 57 51 50 47 54 38 305 299 126 134 130 104 92
357 1 4 3 4 6 4 6 8 3 359 15 70 123 1 37 61 354 2 131 181 175 194 359 35 34 10 355 323 335 1 21 24 3 309 319 350 358 348 19 8 349 5 54 37 8 17 13 357 357 8 4 1 3 351 17 43 34 30 24 6 2 17 325 310 245 220 194 150 133 123 94 42 51 83 80 71 61 53 17 353 37 83 109 108 93 72
357 1 6 5 6 9 8 10 12 10 14 33 55 48 21 22 36 349 336 327 200 181 154 41 49 30 13 19 337 329 357 18 10 352 314 336 351 350 359 27 20 359 15 43 34 8 6 352 336 329 353 358 335 355 328 306 35 40 45 28 8 6 336 338 359 358 270 204 133 116 101 87 48 12 89 99 85 66 50 19 14 49 62 56 77 88 74
357 1 7 7 8 10 11 14 14 16 25 31 24 19 16 6 3 4 348 301 268 180 111 63 61 36 8 352 322 328 356 11 8 1 18 23 18 10 10 16 19 12 23 29 10 348 339 324 312 310 325 312 258 228 169 174 84 61 57 35 28 28 347 3 25 18 327 346 75 96 89 79 52 23 18 47 77 83 71 36 44 98 96 55 48 80 83
357 2 7 8 9 11 13 16 15 17 23 26 10 345 1 6 357 358 10 266 291 19 104 78 63 36 324 324 331 343 356 4 14 18 2 5 12 14 10 8 8 17 20 8 340 321 314 304 294 292 287 269 265 249 186 178 151 125 127 111 122 147 116 71 61 63 339 338 356 79 86 67 42 359 332 320 95 101 82 61 74 112 119 99 84 102 103
358 3 7 9 11 11 14 17 16 17 18 20 9 305 349 5 334 329 48 174 321 1 75 87 85 234 287 352 356 356 359 1 9 17 357 348 352 4 11 9 9 9 351 331 310 301 300 290 275 268 269 275 285 279 227 198 157 136 137 133 160 121 104 115 109 96 337 331 354 39 71 63 340 293 304 296 122 103 86 82 95 100 96 101 112 111 99
358 2 7 10 11 12 14 15 16 17 16 15 8 299 349 5 338 293 74 112 357 12 28 66 101 207 277 29 16 1 359 357 358 3 358 329 337 357 6 0 2 342 317 311 306 305 301 285 263 249 249 252 257 271 302 6 58 98 117 117 121 106 94 105 103 90 340 335 18 40 67 88 274 302 340 20 82 91 85 79 81 96 103 103 106 110 107
359 2 8 12 12 13 14 13 13 16 15 15 14 349 3 13 5 319 31 38 30 21 8 22 25 348 324 25 25 352 344 337 335 346 2 337 339 359 357 341 340 315 304 308 308 307 306 305 303 274 257 245 231 308 8 28 48 48 42 76 112 121 108 105 112 103 106 63 58 91 172 350 324 335 3 18 32 51 64 58 37 67 109 112 109 113 112
359 3 9 13 13 14 15 13 12 14 15 18 20 17 17 20 18 0 18 50 52 21 16 21 359 342 337 1 37 331 308 311 314 316 323 211 342 3 347 322 319 305 300 306 308 314 348 6 358 358 350 2 24 6 360 20 50 45 24 8 101 120 116 106 116 116 122 121 92 72 118 7 352 356 5 11 11 344 0 70 38 36 98 115 116 119 120
359 3 10 14 15 16 16 14 13 13 13 18 23 24 21 18 15 5 339 160 107 37 24 14 344 337 350 13 19 357 323 337 340 314 290 224 126 59 332 304 298 289 297 320 314 333 37 41 32 31 18 22 22 322 340 2 37 36 25 14 40 75 73 80 126 128 93 114 111 88 133 25 340 338 331 335 3 340 331 76 82 59 100 120 123 129 134
358 3 10 15 16 16 17 15 13 13 12 14 18 22 21 16 12 3 333 229 78 51 10 1 357 355 7 13 6 1 354 355 349 328 315 359 32 23 345 329 315 301 313 343 325 353 37 53 71 67 1 37 96 242 312 356 345 7 24 30 36 39 33 39 74 81 54 96 118 119 122 161 288 305 313 319 349 359 1 54 92 96 121 126 126 132 139
358 2 9 14 16 17 18 16 12 12 12 13 15 18 19 17 13 6 340 149 72 50 2 12 16 7 17 14 354 357 6 352 349 342 331 3 21 4 348 345 342 343 4 16 355 15 32 45 86 92 26 342 30 204 249 18 3 337 355 27 38 34 31 34 45 65 67 79 88 78 87 73 303 309 308 306 333 10 40 84 108 91 101 112 121 129 138
357 360 6 14 17 17 18 17 13 12 12 13 16 20 21 21 20 18 11 78 79 54 10 29 39 29 23 19 354 0 10 353 353 347 332 356 9 340 333 348 357 355 3 14 22 26 17 20 94 103 82 314 329 98 76 56 128 318 349 45 57 36 29 30 33 74 84 85 94 98 98 289 299 299 296 298 323 21 67 133 182 87 84 91 105 115 123
357 359 4 13 17 17 19 18 15 14 12 11 14 21 24 21 21 24 24 22 75 57 25 37 50 47 35 27 6 9 18 10 12 5 350 355 329 319 328 29 27 356 354 6 20 28 22 13 20 97 106 321 321 98 84 49 76 33 34 56 55 9 10 22 13 17 66 92 100 98 87 273 268 274 302 345 47 93 102 131 134 101 94 93 92 93 90
358 359 2 11 15 16 19 19 16 16 14 13 14 18 24 19 16 21 22 5 74 72 30 41 55 50 44 45 31 16 17 17 22 16 2 325 311 322 359 35 356 347 12 14 6 5 17 3 340 25 87 47 328 92 85 57 51 38 53 83 64 358 61 63 23 350 41 73 76 102 116 313 308 312 349 12 45 105 93 89 90 85 91 96 91 85 82
359 358 0 8 11 14 19 20 20 19 17 19 21 20 22 15 6 6 5 354 16 102 22 47 74 69 58 54 48 44 39 29 24 21 350 306 312 352 48 10 341 355 19 4 354 348 358 355 342 7 30 17 16 12 8 63 56 18 46 93 58 357 46 97 20 322 42 79 77 83 65 9 7 43 76 44 43 72 82 83 75 61 66 81 84 79 77
358 357 358 4 7 12 17 18 22 24 22 26 29 26 19 8 358 358 357 347 14 142 227 192 84 79 72 59 45 48 56 48 40 40 17 317 329 36 62 4 351 1 6 22 27 340 336 356 359 20 29 15 6 1 5 62 83 4 25 72 58 44 88 94 61 37 63 98 110 89 76 52 41 61 80 65 52 57 74 83 80 65 56 62 75 75 66
357 356 356 1 3 8 12 13 22 27 24 26 26 20 14 3 355 358 359 347 81 158 252 22 63 59 60 56 39 34 51 56 51 46 41 25 351 20 47 28 348 335 341 43 78 279 298 331 333 36 59 18 347 7 26 46 69 22 32 64 87 103 103 95 86 84 76 74 81 84 83 74 63 62 65 63 61 62 71 80 81 76 68 63 70 76 71
354 352 353 358 359 2 6 8 17 24 22 27 25 18 18 14 4 4 4 1 36 26 336 23 47 6 10 50 42 31 38 46 54 54 52 52 48 19 14 2 327 338 330 310 283 259 283 330 344 34 63 24 356 35 50 37 30 42 47 40 30 70 85 84 104 126 106 80 80 89 95 97 89 78 68 64 65 65 68 77 84 84 80 75 72 78 85
349 350 353 355 355 358 1 0 9 19 20 27 31 26 26 20 9 10 14 5 5 31 16 17 357 319 35 48 46 45 42 35 38 50 55 54 54 42 304 299 272 227 268 291 321 21 19 16 32 43 51 33 18 36 49 41 38 57 64 38 351 12 57 70 85 94 96 104 109 100 93 92 90 86 80 76 76 75 75 78 80 77 73 69 66 70 81
345 347 351 353 351 354 355 353 1 11 14 21 25 19 17 9 4 15 29 9 323 298 105 81 215 103 69 61 57 56 51 33 26 37 47 46 38 19 353 338 307 245 261 299 9 38 33 38 52 51 33 13 17 18 18 33 48 62 60 26 342 18 44 63 94 93 89 106 121 118 95 81 81 91 103 109 102 94 89 84 81 80 76 69 62 61 65
342 344 347 349 350 349 346 348 354 360 5 10 1 0 10 13 11 20 30 23 0 24 36 349 250 96 53 48 58 61 54 37 26 28 35 41 41 26 12 10 8 347 344 358 22 38 49 45 34 36 21 350 357 352 353 45 65 68 43 4 359 47 50 51 93 104 107 125 137 145 126 100 100 117 120 122 123 118 113 106 98 94 92 86 78 71 65
339 341 342 345 349 347 340 340 344 346 353 353 337 343 26 39 29 25 35 42 47 84 228 281 273 139 21 19 46 70 71 54 35 25 22 24 33 31 17 16 24 2 354 19 39 44 65 55 9 355 23 19 5 340 335 46 67 64 39 9 25 72 81 81 97 108 139 151 131 133 127 125 148 150 134 135 141 131 122 120 124 130 128 122 114 104 91
334 335 338 343 348 344 335 332 331 333 353 0 355 359 61 60 28 18 31 50 45 16 250 267 328 129 118 18 21 45 70 71 48 25 9 358 11 28 27 26 27 359 340 30 56 60 87 85 48 29 33 92 82 333 338 48 70 61 65 63 60 74 85 96 104 111 123 113 100 110 120 131 146 136 118 109 107 99 92 101 110 121 127 127 126 125 127
330 333 337 340 343 340 332 325 316 327 1 8 4 3 76 80 6 1 10 33 42 18 18 66 9 282 145 75 14 351 14 78 77 7 339 328 1 42 43 40 26 2 358 33 49 61 74 39 46 61 9 40 97 47 353 58 77 42 42 63 70 74 80 93 106 107 105 102 99 100 106 113 116 108 98 99 103 98 86 83 80 72 86 101 103 101 108
330 337 338 335 336 334 328 316 300 350 18 15 9 11 114 178 334 346 355 8 23 17 35 136 253 250 37 71 351 323 342 65 104 6 327 330 18 51 54 61 42 21 29 34 18 43 66 17 23 53 9 19 65 63 27 65 77 44 50 61 63 67 74 89 105 110 116 121 120 116 109 106 108 102 89 93 106 108 105 98 92 85 86 91 88 77 84
333 339 335 331 329 328 326 311 255 11 31 26 25 82 159 256 316 334 346 357 356 346 19 335 308 150 93 289 235 309 340 345 98 142 316 330 15 36 42 77 81 51 64 75 1 5 81 73 52 48 351 353 53 65 57 82 124 158 100 78 62 56 59 59 69 83 92 101 109 111 97 81 99 113 107 96 106 116 124 122 113 112 114 115 116 111 100
334 334 330 326 326 327 317 186 198 227 325 13 24 212 235 296 319 331 348 3 344 310 323 356 293 195 136 271 257 26 357 332 331 99 347 326 3 43 29 67 108 71 48 64 77 302 314 73 82 64 323 341 65 71 50 82 120 122 101 90 80 68 59 52 56 60 58 61 78 94 89 73 89 111 118 118 117 122 130 135 136 138 138 139 146 141 117
331 327 325 323 322 324 185 190 187 218 296 312 288 248 277 317 329 333 352 8 347 311 303 26 304 302 1 357 322 347 352 334 354 81 11 311 335 39 355 306 25 39 4 351 120 58 10 28 81 93 307 337 63 71 39 51 74 89 98 104 103 90 70 60 65 68 67 70 80 98 109 106 94 85 101 124 130 121 124 138 151 153 141 127 130 132 119
324 320 320 316 282 147 149 164 167 234 281 289 248 236 274 311 326 341 12 20 22 358 315 314 148 258 354 81 17 321 330 351 8 46 92 288 327 10 29 12 24 8 275 267 59 58 19 291 77 86 59 17 33 56 70 57 57 66 81 101 112 107 90 72 71 71 71 73 72 76 88 98 109 121 131 150 144 114 102 98 94 115 130 127 110 110 111
318 315 324 22 118 124 132 165 184 254 263 259 284 300 315 322 314 258 120 61 114 160 290 327 347 272 136 113 114 312 336 7 329 306 67 59 348 333 33 55 42 283 259 13 54 46 265 239 47 39 23 44 65 98 90 71 58 52 47 54 100 128 139 134 114 92 78 75 71 62 47 19 328 175 146 136 121 109 97 67 41 46 88 121 116 109 109
307 348 93 96 92 65 290 233 177 120 326 307 323 331 338 343 325 259 218 204 200 209 229 357 310 282 158 117 133 318 353 14 340 346 36 38 340 326 28 59 53 293 333 40 58 327 273 221 85 43 3 74 114 98 74 72 70 59 42 25 18 45 125 137 123 107 106 109 105 107 149 262 265 223 153 130 113 103 99 98 86 61 58 90 107 113 113
210 138 116 101 56 351 277 231 172 54 18 354 3 358 336 325 9 293 240 163 163 216 216 116 303 311 43 81 22 337 353 348 344 14 41 12 340 357 21 43 232 298 18 27 301 279 312 7 114 101 65 65 74 66 61 69 68 53 47 39 20 19 59 123 127 126 145 158 150 166 231 265 284 283 135 129 120 114 115 115 112 107 108 109 106 103 106
156 135 227 282 280 289 264 223 92 57 42 16 17 11 277 197 104 209 251 126 113 238 256 88 1 3 57 81 18 346 1 4 7 23 32 36 41 25 13 10 331 30 49 345 299 322 5 341 16 85 65 41 41 40 46 61 61 45 41 42 28 20 24 94 143 147 155 162 162 167 168 119 73 45 51 97 117 127 130 126 130 175 177 138 126 129 139
155 235 262 258 121 158 169 148 121 74 35 339 268 75 326 267 123 123 123 49 5 263 334 100 202 351 66 85 65 353 350 10 60 68 15 20 66 15 6 19 320 36 58 337 295 352 31 336 12 62 46 11 34 35 33 48 56 40 29 33 34 25 12 2 96 149 154 165 154 136 119 105 89 58 55 98 121 132 135 141 176 214 191 147 140 167 184
346 301 286 332 48 105 128 126 123 9 353 305 251 26 19 292 292 100 105 51 293 208 42 40 55 36 28 47 71 54 341 342 29 99 61 353 304 330 8 334 275 55 62 300 284 1 40 344 30 83 84 38 52 42 35 45 49 29 15 19 36 40 19 355 341 167 150 106 39 101 111 99 77 50 42 54 105 166 164 166 186 200 173 153 162 196 200
8 350 329 332 20 102 119 146 252 266 353 38 353 330 262 227 290 337 171 208 95 86 348 4 71 80 17 3 41 98 356 331 334 80 77 326 257 232 46 1 352 54 57 283 316 13 9 1 34 74 92 52 49 45 44 50 52 37 19 13 23 38 28 1 349 10 109 65 16 23 104 103 90 67 34 14 21 163 166 167 164 154 151 159 185 208 204
105 347 326 319 306 152 184 254 250 106 47 19 38 29 352 282 242 209 179 188 73 61 307 256 108 92 18 352 25 97 103 41 356 43 72 37 267 63 59 29 13 84 233 298 17 28 342 26 67 152 159 95 61 54 52 51 53 48 27 13 11 11 10 9 1 11 115 97 14 329 84 95 87 94 84 48 103 148 142 138 142 143 148 174 217 220 202
17 265 260 293 268 177 182 300 1 71 35 334 142 150 223 238 215 155 124 136 73 57 330 229 109 97 33 304 48 79 79 72 47 29 35 24 20 57 87 171 265 193 63 26 25 309 337 42 58 151 137 104 60 40 41 51 66 64 32 7 7 2 357 357 351 350 89 103 294 276 161 98 32 279 161 190 242 161 139 145 192 191 184 224 249 246 205
339 228 154 61 338 335 77 348 310 266 179 205 211 202 186 146 93 95 117 165 127 99 340 330 59 87 109 217 78 57 10 82 72 54 103 72 28 17 144 232 336 13 35 13 336 340 33 24 336 2 70 89 70 47 47 51 57 56 37 16 10 354 340 338 338 343 37 83 273 269 166 113 321 286 191 182 221 181 158 174 199 205 210 229 248 259 220
272 203 108 77 325 291 233 184 223 218 205 211 214 155 97 79 72 88 105 91 94 105 89 8 29 61 77 73 69 69 177 107 73 2 121 107 86 254 112 60 18 21 27 349 332 41 71 213 277 356 37 47 41 52 61 57 42 30 16 1 340 322 325 345 7 14 23 7 303 293 243 172 240 286 345 33 284 220 196 198 197 198 208 218 229 251 253
263 226 103 80 279 249 207 188 212 224 220 182 105 90 92 88 71 62 59 55 75 89 71 22 25 52 61 56 59 30 59 82 63 314 66 86 54 294 62 55 24 51 38 310 286 123 175 227 240 39 41 30 19 26 43 56 49 18 344 324 308 317 5 29 26 7 353 341 323 323 329 324 297 272 263 282 278 249 235 232 221 224 237 238 236 249 249
294 93 125 129 156 188 219 231 229 224 139 75 78 91 106 106 84 59 45 46 59 64 51 26 24 30 24 38 71 326 22 76 66 309 77 86 48 12 52 35 308 227 196 242 212 161 165 172 119 73 36 15 12 3 359 19 20 346 317 303 298 310 43 59 0 312 283 252 253 328 347 334 324 320 311 288 265 243 226 223 235 252 262 264 268 274 265
274 100 233 254 245 234 236 230 203 119 75 62 60 67 81 93 90 68 48 47 55 54 49 60 72 50 327 304 40 330 326 108 94 34 65 86 79 80 96 8 281 263 250 249 121 120 134 135 122 112 44 0 8 351 345 8 350 298 286 287 293 296 279 242 252 261 242 223 216 206 201 238 274 310 328 323 306 279 234 208 208 223 236 247 265 274 264
273 254 251 273 295 290 289 327 84 88 82 70 61 63 75 88 83 41 20 51 85 60 33 47 79 72 324 1 54 5 318 97 92 79 130 149 170 179 174 196 227 242 276 31 80 104 123 122 112 98 46 0 334 309 307 306 283 283 293 302 303 301 294 275 274 295 284 243 210 191 184 187 192 211 287 304 311 319 308 230 211 211 217 228 246 260 258
250 256 252 235 248 269 285 36 87 100 107 100 83 70 79 97 96 24 354 26 89 84 40 6 123 73 12 39 79 8 339 38 46 39 243 235 177 161 195 226 195 108 43 39 77 105 101 93 96 85 37 350 326 310 308 308 308 320 339 341 331 324 331 347 345 331 325 309 224 192 191 194 189 188 215 265 285 310 338 322 284 237 225 230 237 244 248
223 262 266 249 249 262 262 123 93 86 90 95 84 62 66 95 111 79 20 35 69 103 168 178 108 93 153 188 19 37 63 57 12 356 326 314 339 153 207 207 138 116 88 31 27 52 59 72 87 83 37 318 295 294 304 316 337 11 17 349 331 328 336 336 317 291 291 304 280 212 197 204 206 199 208 246 253 212 191 293 321 329 322 296 275 258 247